| time (UTC) | temp F | wind direction | speed MPH | gust MPH | rain 1hr in | rain 24hr in | rain mn in | humidity % | barometer mb |
| 20260505164915 | 66 | 273 | 8.0 | 21.0 | 0.00 | 0.02 | 0.02 | 65 | 1003.5 |
| 20260505164412 | 65 | 252 | 8.0 | 13.0 | 0.00 | 0.02 | 0.02 | 66 | 1003.4 |
| 20260505163910 | 65 | 249 | 10.0 | 19.0 | 0.00 | 0.02 | 0.02 | 66 | 1003.6 |
| 20260505163409 | 65 | 318 | 13.0 | 18.0 | 0.00 | 0.02 | 0.02 | 65 | 1003.6 |
| 20260505162908 | 64 | 190 | 10.0 | 24.0 | 0.00 | 0.02 | 0.02 | 66 | 1003.9 |
| 20260505162403 | 64 | 216 | 8.0 | 21.0 | 0.00 | 0.02 | 0.02 | 67 | 1003.9 |
| 20260505161900 | 64 | 297 | 11.0 | 18.0 | 0.00 | 0.02 | 0.02 | 66 | 1003.8 |
| 20260505161357 | 64 | 273 | 9.0 | 21.0 | 0.00 | 0.02 | 0.02 | 66 | 1003.7 |
| 20260505160854 | 65 | 273 | 7.0 | 19.0 | 0.00 | 0.02 | 0.02 | 65 | 1003.6 |
| 20260505160352 | 65 | 255 | 8.0 | 16.0 | 0.00 | 0.02 | 0.02 | 65 | 1003.3 |
| 20260505153331 | 65 | 253 | 9.0 | 11.0 | 0.00 | 0.02 | 0.02 | 65 | 1002.7 |
| 20260505152829 | 65 | 197 | 11.0 | 23.0 | 0.00 | 0.02 | 0.02 | 65 | 1002.6 |
| 20260505152326 | 65 | 228 | 5.0 | 16.0 | 0.00 | 0.02 | 0.02 | 64 | 1002.6 |
| 20260505151825 | 65 | 200 | 6.0 | 15.0 | 0.00 | 0.02 | 0.02 | 65 | 1002.5 |
| 20260505151322 | 64 | 238 | 11.0 | 16.0 | 0.00 | 0.02 | 0.02 | 66 | 1002.3 |
| 20260505150819 | 64 | 213 | 5.0 | 10.0 | 0.00 | 0.02 | 0.02 | 67 | 1002.6 |
| 20260505150316 | 64 | 269 | 6.0 | 9.0 | 0.00 | 0.02 | 0.02 | 67 | 1002.6 |
| 20260505140240 | 67 | 201 | 9.0 | 14.0 | 0.00 | 0.02 | 0.02 | 64 | 1001.6 |
| 20260505130204 | 63 | 190 | 9.0 | 21.0 | 0.00 | 0.02 | 0.02 | 69 | 1001.4 |
| 20260505124654 | 62 | 158 | 16.0 | 21.0 | 0.00 | 0.02 | 0.02 | 70 | 1001.3 |
| 20260505124151 | 62 | 197 | 7.0 | 17.0 | 0.00 | 0.02 | 0.02 | 72 | 1001.1 |
| 20260505123647 | 62 | 144 | 7.0 | 14.0 | 0.00 | 0.02 | 0.02 | 72 | 1001.1 |
| 20260505123144 | 62 | 181 | 7.0 | 18.0 | 0.00 | 0.02 | 0.02 | 73 | 1001.4 |
| 20260505122640 | 61 | 170 | 6.0 | 14.0 | 0.00 | 0.02 | 0.02 | 73 | 1001.2 |
| 20260505122138 | 61 | 162 | 11.0 | 19.0 | 0.00 | 0.02 | 0.02 | 72 | 1001.5 |
| 20260505121634 | 61 | 165 | 7.0 | 19.0 | 0.00 | 0.02 | 0.02 | 73 | 1001.2 |
| 20260505121131 | 61 | 177 | 9.0 | 15.0 | 0.00 | 0.02 | 0.02 | 74 | 1001.4 |
| 20260505120627 | 61 | 204 | 6.0 | 17.0 | 0.00 | 0.02 | 0.02 | 75 | 1001.3 |
| 20260505120123 | 61 | 181 | 14.0 | 17.0 | 0.00 | 0.02 | 0.02 | 74 | 1001.3 |
| 20260505115617 | 60 | 175 | 8.0 | 14.0 | 0.00 | 0.02 | 0.02 | 75 | 1001.5 |
| 20260505115115 | 60 | 185 | 7.0 | 15.0 | 0.00 | 0.02 | 0.02 | 75 | 1001.4 |
| 20260505114612 | 60 | 166 | 8.0 | 17.0 | 0.00 | 0.02 | 0.02 | 76 | 1001.4 |
| 20260505114108 | 59 | 162 | 12.0 | 14.0 | 0.00 | 0.02 | 0.02 | 78 | 1001.3 |
| 20260505113605 | 59 | 159 | 8.0 | 15.0 | 0.00 | 0.02 | 0.02 | 78 | 1001.4 |
| 20260505113102 | 59 | 171 | 8.0 | 16.0 | 0.00 | 0.02 | 0.02 | 79 | 1001.2 |
| 20260505112558 | 59 | 226 | 10.0 | 15.0 | 0.00 | 0.02 | 0.02 | 80 | 1001.4 |
| 20260505112056 | 58 | 167 | 7.0 | 19.0 | 0.00 | 0.02 | 0.02 | 81 | 1001.2 |
| 20260505111555 | 57 | 188 | 13.0 | 18.0 | 0.00 | 0.02 | 0.02 | 81 | 1001.2 |
| 20260505111052 | 58 | 185 | 11.0 | 17.0 | 0.00 | 0.02 | 0.02 | 79 | 1001.3 |
| 20260505110548 | 59 | 156 | 7.0 | 11.0 | 0.00 | 0.02 | 0.02 | 79 | 1001.0 |
| 20260505102021 | 57 | 184 | 11.0 | 14.0 | 0.00 | 0.02 | 0.02 | 80 | 1000.9 |
| 20260505101519 | 57 | 172 | 13.0 | 16.0 | 0.00 | 0.02 | 0.02 | 81 | 1000.7 |
| 20260505101015 | 56 | 162 | 8.0 | 14.0 | 0.00 | 0.02 | 0.02 | 84 | 1000.6 |
| 20260505100513 | 56 | 184 | 9.0 | 15.0 | 0.00 | 0.02 | 0.02 | 84 | 1000.6 |
| 20260505100010 | 57 | 202 | 15.0 | 17.0 | 0.00 | 0.02 | 0.02 | 82 | 1000.6 |
| 20260505095505 | 56 | 146 | 8.0 | 17.0 | 0.00 | 0.02 | 0.02 | 84 | 1000.4 |
| 20260505095001 | 55 | 152 | 9.0 | 13.0 | 0.00 | 0.02 | 0.02 | 86 | 1000.6 |
| 20260505094458 | 55 | 190 | 8.0 | 11.0 | 0.00 | 0.02 | 0.02 | 87 | 1000.6 |
| 20260505093954 | 55 | 188 | 9.0 | 10.0 | 0.00 | 0.02 | 0.02 | 89 | 1000.6 |
| 20260505093451 | 55 | 156 | 7.0 | 13.0 | 0.00 | 0.02 | 0.02 | 88 | 1000.7 |
| 20260505092949 | 55 | 183 | 9.0 | 11.0 | 0.00 | 0.02 | 0.02 | 88 | 1000.7 |
| 20260505092446 | 55 | 144 | 6.0 | 13.0 | 0.00 | 0.02 | 0.02 | 88 | 1001.0 |
| 20260505091943 | 55 | 187 | 6.0 | 11.0 | 0.00 | 0.02 | 0.02 | 88 | 1000.7 |
| 20260505091441 | 56 | 184 | 6.0 | 13.0 | 0.00 | 0.02 | 0.02 | 87 | 1000.9 |
| 20260505090939 | 56 | 163 | 10.0 | 14.0 | 0.00 | 0.02 | 0.02 | 85 | 1001.1 |
| 20260505090437 | 56 | 167 | 9.0 | 13.0 | 0.00 | 0.02 | 0.02 | 86 | 1000.8 |
| 20260505085934 | 56 | 156 | 8.0 | 14.0 | 0.00 | 0.02 | 0.02 | 87 | 1000.9 |
| 20260505085432 | 56 | 169 | 6.0 | 13.0 | 0.00 | 0.02 | 0.02 | 87 | 1001.0 |
| 20260505084930 | 56 | 186 | 7.0 | 10.0 | 0.00 | 0.02 | 0.02 | 86 | 1001.0 |
| 20260505084428 | 57 | 185 | 9.0 | 10.0 | 0.00 | 0.02 | 0.02 | 85 | 1000.9 |
| 20260505083925 | 57 | 161 | 5.0 | 9.0 | 0.00 | 0.02 | 0.02 | 84 | 1001.0 |
| 20260505083423 | 58 | 158 | 5.0 | 13.0 | 0.00 | 0.02 | 0.02 | 82 | 1000.9 |
| 20260505082918 | 58 | 189 | 5.0 | 11.0 | 0.00 | 0.02 | 0.02 | 82 | 1001.5 |
| 20260505082414 | 58 | 197 | 9.0 | 13.0 | 0.00 | 0.02 | 0.02 | 80 | 1001.1 |
| 20260505081912 | 58 | 209 | 7.0 | 11.0 | 0.00 | 0.02 | 0.02 | 80 | 1001.3 |
| 20260505081408 | 59 | 210 | 5.0 | 9.0 | 0.00 | 0.02 | 0.02 | 80 | 1001.3 |
| 20260505080905 | 58 | 201 | 6.0 | 11.0 | 0.00 | 0.02 | 0.02 | 80 | 1001.2 |
| 20260505080401 | 58 | 197 | 7.0 | 14.0 | 0.00 | 0.02 | 0.02 | 79 | 1001.3 |
| 20260505075857 | 58 | 203 | 12.0 | 18.0 | 0.00 | 0.02 | 0.02 | 79 | 1001.4 |
| 20260505075353 | 59 | 203 | 9.0 | 13.0 | 0.00 | 0.02 | 0.02 | 79 | 1001.4 |
| 20260505074851 | 58 | 169 | 6.0 | 14.0 | 0.00 | 0.02 | 0.02 | 77 | 1001.5 |
| 20260505074348 | 58 | 184 | 4.0 | 9.0 | 0.00 | 0.02 | 0.02 | 78 | 1001.5 |
| 20260505073845 | 58 | 168 | 5.0 | 9.0 | 0.00 | 0.02 | 0.02 | 78 | 1001.5 |
| 20260505073343 | 58 | 193 | 6.0 | 9.0 | 0.00 | 0.02 | 0.02 | 78 | 1001.6 |
| 20260505072840 | 58 | 172 | 6.0 | 9.0 | 0.00 | 0.02 | 0.02 | 77 | 1001.6 |
| 20260505072336 | 58 | 208 | 7.0 | 13.0 | 0.00 | 0.02 | 0.02 | 77 | 1001.7 |
| 20260505071832 | 58 | 197 | 6.0 | 10.0 | 0.00 | 0.02 | 0.02 | 77 | 1001.6 |
| 20260505071328 | 58 | 177 | 5.0 | 9.0 | 0.00 | 0.02 | 0.02 | 76 | 1001.7 |
| 20260505070827 | 59 | 188 | 8.0 | 11.0 | 0.00 | 0.02 | 0.02 | 75 | 1001.7 |
| 20260505070323 | 59 | 184 | 7.0 | 11.0 | 0.00 | 0.02 | 0.02 | 75 | 1001.7 |
| 20260505065818 | 59 | 216 | 7.0 | 14.0 | 0.00 | 0.02 | 0.02 | 75 | 1001.6 |
| 20260505065315 | 59 | 184 | 6.0 | 13.0 | 0.00 | 0.02 | 0.02 | 75 | 1001.7 |
| 20260505064813 | 59 | 183 | 10.0 | 13.0 | 0.00 | 0.02 | 0.02 | 74 | 1001.7 |
| 20260505064309 | 59 | 186 | 9.0 | 19.0 | 0.00 | 0.02 | 0.02 | 74 | 1001.6 |
| 20260505063808 | 59 | 164 | 6.0 | 14.0 | 0.00 | 0.02 | 0.02 | 75 | 1001.6 |
| 20260505063303 | 58 | 215 | 7.0 | 14.0 | 0.00 | 0.02 | 0.02 | 75 | 1001.5 |
| 20260505062800 | 58 | 143 | 8.0 | 15.0 | 0.00 | 0.02 | 0.02 | 75 | 1001.6 |
| 20260505062258 | 58 | 172 | 9.0 | 10.0 | 0.00 | 0.02 | 0.02 | 76 | 1001.3 |
| 20260505061754 | 58 | 200 | 12.0 | 14.0 | 0.00 | 0.02 | 0.02 | 74 | 1001.3 |
| 20260505061252 | 58 | 164 | 11.0 | 16.0 | 0.00 | 0.02 | 0.02 | 75 | 1001.4 |
| 20260505060749 | 58 | 156 | 12.0 | 15.0 | 0.00 | 0.02 | 0.02 | 75 | 1001.2 |
| 20260505060247 | 58 | 172 | 9.0 | 13.0 | 0.00 | 0.02 | 0.02 | 77 | 1001.4 |
| 20260505055742 | 59 | 183 | 9.0 | 13.0 | 0.00 | 0.02 | 0.02 | 76 | 1001.4 |
| 20260505055238 | 58 | 182 | 7.0 | 11.0 | 0.05 | 0.02 | 0.02 | 78 | 1001.4 |
| 20260505054736 | 57 | 203 | 9.0 | 13.0 | 0.12 | 0.02 | 0.02 | 83 | 1001.6 |
| 20260505054233 | 56 | 162 | 8.0 | 17.0 | 0.07 | 0.01 | 0.01 | 85 | 1001.5 |
| 20260505053732 | 59 | 146 | 11.0 | 18.0 | 0.00 | 0.00 | 0.00 | 73 | 1001.7 |
| 20260505053227 | 59 | 186 | 13.0 | 18.0 | 0.00 | 0.00 | 0.00 | 65 | 1001.2 |
| 20260505052725 | 59 | 191 | 7.0 | 13.0 | 0.00 | 0.00 | 0.00 | 57 | 1001.7 |
| 20260505052222 | 59 | 172 | 9.0 | 13.0 | 0.00 | 0.00 | 0.00 | 56 | 1001.7 |
| 20260505051719 | 59 | 176 | 6.0 | 9.0 | 0.00 | 0.00 | 0.00 | 55 | 1001.8 |
| 20260505051217 | 59 | 170 | 5.0 | 10.0 | 0.00 | 0.00 | 0.00 | 55 | 1001.7 |
| 20260505050714 | 58 | 196 | 8.0 | 9.0 | 0.00 | 0.00 | 0.00 | 55 | 1001.7 |
| 20260505050213 | 59 | 148 | 7.0 | 10.0 | 0.00 | 0.00 | 0.00 | 55 | 1001.9 |
| 20260505041648 | 55 | 161 | 6.0 | 9.0 | 0.00 | 0.00 | 0.00 | 61 | 1001.7 |
| 20260505041146 | 55 | 172 | 8.0 | 11.0 | 0.00 | 0.00 | 0.00 | 60 | 1001.9 |
| 20260505040643 | 56 | 167 | 5.0 | 10.0 | 0.00 | 0.00 | 0.00 | 60 | 1001.9 |
| 20260505040140 | 55 | 146 | 7.0 | 11.0 | 0.00 | 0.01 | 0.01 | 60 | 1001.8 |
| 20260505035636 | 54 | 193 | 8.0 | 10.0 | 0.00 | 0.01 | 0.01 | 62 | 1002.1 |
| 20260505035132 | 55 | 155 | 8.0 | 10.0 | 0.00 | 0.01 | 0.01 | 61 | 1002.1 |
| 20260505034629 | 55 | 181 | 7.0 | 10.0 | 0.00 | 0.01 | 0.01 | 62 | 1002.2 |
| 20260505034126 | 55 | 165 | 8.0 | 9.0 | 0.00 | 0.01 | 0.01 | 61 | 1002.2 |
| 20260505033623 | 55 | 149 | 9.0 | 10.0 | 0.00 | 0.01 | 0.01 | 61 | 1002.1 |
| 20260505033122 | 54 | 170 | 7.0 | 10.0 | 0.00 | 0.01 | 0.01 | 62 | 1002.2 |
| 20260505032619 | 54 | 186 | 9.0 | 10.0 | 0.00 | 0.01 | 0.01 | 63 | 1002.2 |
| 20260505032115 | 53 | 178 | 7.0 | 9.0 | 0.00 | 0.01 | 0.01 | 65 | 1002.5 |
| 20260505031613 | 52 | 170 | 6.0 | 9.0 | 0.00 | 0.01 | 0.01 | 68 | 1002.5 |
| 20260505031108 | 52 | 165 | 7.0 | 9.0 | 0.00 | 0.01 | 0.01 | 68 | 1002.5 |
| 20260505030606 | 52 | 175 | 7.0 | 7.0 | 0.00 | 0.01 | 0.01 | 68 | 1002.5 |
| 20260505025557 | 54 | 179 | 10.0 | 13.0 | 0.00 | 0.01 | 0.01 | 64 | 1002.6 |
| 20260505025056 | 55 | 181 | 6.0 | 8.0 | 0.00 | 0.01 | 0.01 | 61 | 1002.6 |
| 20260505024553 | 55 | 168 | 6.0 | 11.0 | 0.00 | 0.01 | 0.01 | 59 | 1002.6 |
| 20260505024050 | 56 | 150 | 6.0 | 10.0 | 0.00 | 0.01 | 0.01 | 58 | 1002.6 |
| 20260505023547 | 55 | 169 | 7.0 | 8.0 | 0.00 | 0.01 | 0.01 | 59 | 1002.6 |
| 20260505023045 | 56 | 165 | 6.0 | 9.0 | 0.00 | 0.01 | 0.01 | 58 | 1002.7 |
| 20260505022542 | 56 | 150 | 6.0 | 9.0 | 0.00 | 0.01 | 0.01 | 57 | 1002.7 |
| 20260505022039 | 57 | 163 | 7.0 | 9.0 | 0.00 | 0.01 | 0.01 | 57 | 1002.7 |
| 20260505021536 | 57 | 148 | 7.0 | 9.0 | 0.00 | 0.01 | 0.01 | 55 | 1002.8 |
| 20260505021033 | 57 | 166 | 6.0 | 8.0 | 0.00 | 0.01 | 0.01 | 55 | 1002.6 |
| 20260505020532 | 57 | 152 | 7.0 | 9.0 | 0.00 | 0.01 | 0.01 | 55 | 1002.8 |
| 20260505020029 | 57 | 167 | 6.0 | 9.0 | 0.00 | 0.01 | 0.01 | 54 | 1002.8 |
| 20260505015526 | 57 | 162 | 5.0 | 9.0 | 0.00 | 0.01 | 0.01 | 55 | 1002.9 |
| 20260505015023 | 58 | 183 | 6.0 | 7.0 | 0.00 | 0.01 | 0.01 | 54 | 1002.8 |
| 20260505014520 | 58 | 166 | 5.0 | 7.0 | 0.00 | 0.01 | 0.01 | 53 | 1002.9 |
| 20260505014018 | 59 | 178 | 4.0 | 9.0 | 0.00 | 0.01 | 0.01 | 53 | 1002.7 |
| 20260505013514 | 58 | 178 | 3.0 | 7.0 | 0.00 | 0.01 | 0.01 | 53 | 1002.9 |
| 20260505013012 | 59 | 190 | 4.0 | 7.0 | 0.00 | 0.01 | 0.01 | 52 | 1002.9 |
| 20260505012510 | 59 | 168 | 4.0 | 8.0 | 0.00 | 0.01 | 0.01 | 52 | 1003.0 |
| 20260505012006 | 59 | 202 | 3.0 | 7.0 | 0.00 | 0.01 | 0.01 | 52 | 1002.9 |
| 20260505011502 | 59 | 180 | 7.0 | 9.0 | 0.00 | 0.01 | 0.01 | 51 | 1002.8 |
| 20260505010959 | 60 | 175 | 6.0 | 8.0 | 0.00 | 0.01 | 0.01 | 51 | 1002.9 |
| 20260505010455 | 60 | 201 | 4.0 | 6.0 | 0.00 | 0.01 | 0.01 | 51 | 1002.8 |
| 20260505005951 | 60 | 165 | 5.0 | 7.0 | 0.00 | 0.01 | 0.01 | 51 | 1002.9 |
| 20260505005448 | 59 | 177 | 4.0 | 7.0 | 0.00 | 0.01 | 0.01 | 52 | 1002.9 |
| 20260505004946 | 60 | 174 | 4.0 | 7.0 | 0.00 | 0.01 | 0.01 | 52 | 1002.9 |
| 20260505004442 | 60 | 164 | 4.0 | 7.0 | 0.00 | 0.01 | 0.01 | 53 | 1002.8 |
| 20260505003939 | 60 | 163 | 5.0 | 8.0 | 0.00 | 0.01 | 0.01 | 52 | 1002.9 |
| 20260505003436 | 60 | 169 | 4.0 | 7.0 | 0.00 | 0.01 | 0.01 | 52 | 1002.9 |
| 20260505002932 | 60 | 172 | 7.0 | 10.0 | 0.00 | 0.01 | 0.01 | 51 | 1002.7 |
| 20260505002428 | 60 | 159 | 4.0 | 8.0 | 0.00 | 0.01 | 0.01 | 52 | 1003.0 |
| 20260505001927 | 61 | 180 | 4.0 | 7.0 | 0.00 | 0.01 | 0.01 | 52 | 1002.8 |
| 20260505001424 | 61 | 201 | 4.0 | 8.0 | 0.00 | 0.01 | 0.01 | 51 | 1002.7 |
| 20260505000921 | 61 | 177 | 4.0 | 11.0 | 0.00 | 0.01 | 0.01 | 51 | 1002.9 |
| 20260505000420 | 61 | 183 | 4.0 | 11.0 | 0.00 | 0.01 | 0.01 | 51 | 1003.0 |
| 20260504235916 | 62 | 196 | 4.0 | 8.0 | 0.00 | 0.01 | 0.01 | 51 | 1002.9 |
| 20260504235413 | 62 | 151 | 5.0 | 10.0 | 0.00 | 0.01 | 0.01 | 50 | 1002.9 |
| 20260504234909 | 62 | 222 | 5.0 | 9.0 | 0.00 | 0.01 | 0.01 | 50 | 1002.6 |
| 20260504234407 | 62 | 210 | 11.0 | 15.0 | 0.00 | 0.01 | 0.01 | 49 | 1002.8 |
| 20260504233903 | 63 | 156 | 6.0 | 8.0 | 0.00 | 0.01 | 0.01 | 49 | 1002.8 |
| 20260504233359 | 63 | 186 | 5.0 | 13.0 | 0.00 | 0.01 | 0.01 | 50 | 1002.8 |
| 20260504232855 | 63 | 180 | 6.0 | 8.0 | 0.00 | 0.01 | 0.01 | 50 | 1002.8 |
| 20260504232353 | 63 | 167 | 4.0 | 6.0 | 0.00 | 0.01 | 0.01 | 50 | 1003.0 |
| 20260504231849 | 63 | 204 | 10.0 | 13.0 | 0.00 | 0.01 | 0.01 | 50 | 1002.9 |
| 20260504231346 | 64 | 169 | 4.0 | 8.0 | 0.00 | 0.01 | 0.01 | 50 | 1002.9 |
| 20260504230842 | 64 | 212 | 6.0 | 10.0 | 0.00 | 0.01 | 0.01 | 49 | 1002.8 |
| 20260504230340 | 64 | 187 | 9.0 | 10.0 | 0.00 | 0.01 | 0.01 | 48 | 1002.9 |
| 20260504225839 | 64 | 193 | 4.0 | 13.0 | 0.00 | 0.01 | 0.01 | 49 | 1002.8 |
| 20260504225335 | 65 | 180 | 5.0 | 7.0 | 0.00 | 0.01 | 0.01 | 49 | 1002.9 |
| 20260504224833 | 65 | 205 | 4.0 | 9.0 | 0.00 | 0.01 | 0.01 | 47 | 1002.7 |
| 20260504224329 | 66 | 205 | 6.0 | 7.0 | 0.00 | 0.01 | 0.01 | 48 | 1002.8 |
| 20260504223826 | 66 | 197 | 5.0 | 9.0 | 0.00 | 0.01 | 0.01 | 48 | 1002.9 |
| 20260504223321 | 66 | 157 | 5.0 | 11.0 | 0.00 | 0.01 | 0.01 | 48 | 1003.0 |
| 20260504222818 | 68 | 265 | 8.0 | 13.0 | 0.00 | 0.01 | 0.01 | 45 | 1002.9 |
| 20260504222315 | 68 | 197 | 6.0 | 11.0 | 0.00 | 0.01 | 0.01 | 45 | 1002.8 |
| 20260504221814 | 68 | 238 | 5.0 | 11.0 | 0.00 | 0.01 | 0.01 | 44 | 1002.8 |
| 20260504221310 | 68 | 173 | 2.0 | 14.0 | 0.00 | 0.01 | 0.01 | 48 | 1003.0 |
| 20260504220807 | 69 | 186 | 9.0 | 11.0 | 0.00 | 0.01 | 0.01 | 44 | 1003.0 |
| 20260504220303 | 69 | 185 | 5.0 | 11.0 | 0.00 | 0.01 | 0.01 | 44 | 1003.0 |
| 20260504215801 | 70 | 209 | 4.0 | 11.0 | 0.00 | 0.01 | 0.01 | 45 | 1003.0 |
| 20260504215257 | 69 | 166 | 6.0 | 9.0 | 0.00 | 0.01 | 0.01 | 45 | 1003.1 |
| 20260504214753 | 70 | 190 | 3.0 | 14.0 | 0.00 | 0.01 | 0.01 | 43 | 1003.0 |
| 20260504214250 | 69 | 221 | 5.0 | 9.0 | 0.00 | 0.01 | 0.01 | 44 | 1003.0 |
| 20260504213747 | 70 | 251 | 7.0 | 11.0 | 0.00 | 0.01 | 0.01 | 43 | 1003.0 |
| 20260504213243 | 70 | 226 | 8.0 | 10.0 | 0.00 | 0.01 | 0.01 | 43 | 1003.1 |
| 20260504212740 | 70 | 168 | 2.0 | 8.0 | 0.00 | 0.01 | 0.01 | 45 | 1003.1 |
| 20260504212236 | 70 | 226 | 4.0 | 10.0 | 0.00 | 0.01 | 0.01 | 45 | 1003.2 |
| 20260504211734 | 70 | 184 | 4.0 | 10.0 | 0.00 | 0.01 | 0.01 | 44 | 1003.1 |
| 20260504211230 | 71 | 177 | 4.0 | 10.0 | 0.00 | 0.01 | 0.01 | 44 | 1003.2 |
| 20260504210728 | 70 | 194 | 5.0 | 14.0 | 0.00 | 0.01 | 0.01 | 46 | 1003.2 |
| 20260504210225 | 70 | 200 | 5.0 | 8.0 | 0.00 | 0.01 | 0.01 | 46 | 1003.1 |
| 20260504205722 | 69 | 198 | 4.0 | 10.0 | 0.00 | 0.01 | 0.01 | 46 | 1003.2 |
| 20260504205220 | 69 | 264 | 5.0 | 11.0 | 0.00 | 0.01 | 0.01 | 46 | 1003.1 |
| 20260504204718 | 69 | 226 | 10.0 | 17.0 | 0.00 | 0.01 | 0.01 | 46 | 1003.5 |
| 20260504204216 | 69 | 227 | 5.0 | 10.0 | 0.00 | 0.01 | 0.01 | 46 | 1003.5 |
| 20260504203715 | 68 | 276 | 6.0 | 15.0 | 0.00 | 0.01 | 0.01 | 46 | 1003.5 |
| 20260504203212 | 69 | 199 | 9.0 | 14.0 | 0.00 | 0.01 | 0.01 | 46 | 1003.5 |
| 20260504202712 | 69 | 220 | 6.0 | 14.0 | 0.00 | 0.01 | 0.01 | 47 | 1003.8 |
| 20260504202209 | 69 | 222 | 4.0 | 15.0 | 0.00 | 0.01 | 0.01 | 46 | 1003.8 |
| 20260504201706 | 69 | 281 | 4.0 | 18.0 | 0.00 | 0.01 | 0.01 | 45 | 1003.8 |
| 20260504201204 | 70 | 225 | 6.0 | 18.0 | 0.00 | 0.01 | 0.01 | 45 | 1003.8 |
| 20260504200701 | 69 | 259 | 6.0 | 9.0 | 0.00 | 0.01 | 0.01 | 45 | 1003.5 |
| 20260504200157 | 69 | 197 | 8.0 | 13.0 | 0.00 | 0.01 | 0.01 | 45 | 1003.8 |
| 20260504195654 | 70 | 172 | 5.0 | 10.0 | 0.00 | 0.01 | 0.01 | 44 | 1003.8 |
| 20260504195149 | 69 | 191 | 6.0 | 11.0 | 0.00 | 0.01 | 0.01 | 45 | 1004.0 |
| 20260504194646 | 70 | 254 | 8.0 | 17.0 | 0.00 | 0.01 | 0.01 | 45 | 1004.0 |
| 20260504194142 | 69 | 99 | 6.0 | 14.0 | 0.00 | 0.01 | 0.01 | 46 | 1004.0 |
| 20260504193639 | 70 | 197 | 9.0 | 13.0 | 0.00 | 0.01 | 0.01 | 43 | 1004.1 |
| 20260504193137 | 69 | 255 | 6.0 | 9.0 | 0.00 | 0.01 | 0.01 | 44 | 1004.2 |
| 20260504192635 | 70 | 219 | 10.0 | 16.0 | 0.00 | 0.01 | 0.01 | 44 | 1004.2 |
| 20260504192133 | 70 | 235 | 5.0 | 10.0 | 0.00 | 0.01 | 0.01 | 45 | 1004.3 |
| 20260504191631 | 69 | 194 | 11.0 | 15.0 | 0.00 | 0.01 | 0.01 | 46 | 1004.3 |
| 20260504191127 | 70 | 202 | 4.0 | 7.0 | 0.00 | 0.01 | 0.01 | 44 | 1004.4 |
| 20260504190623 | 69 | 203 | 3.0 | 10.0 | 0.00 | 0.01 | 0.01 | 46 | 1004.4 |
| 20260504190120 | 68 | 236 | 7.0 | 17.0 | 0.00 | 0.01 | 0.01 | 46 | 1004.5 |
| 20260504185616 | 68 | 222 | 11.0 | 17.0 | 0.00 | 0.01 | 0.01 | 45 | 1004.6 |
| 20260504185113 | 68 | 124 | 5.0 | 19.0 | 0.00 | 0.01 | 0.01 | 48 | 1004.4 |
| 20260504184609 | 67 | 217 | 9.0 | 15.0 | 0.00 | 0.01 | 0.01 | 47 | 1004.5 |
| 20260504184104 | 68 | 198 | 2.0 | 17.0 | 0.00 | 0.01 | 0.01 | 47 | 1004.5 |
| 20260504183601 | 67 | 193 | 7.0 | 19.0 | 0.00 | 0.01 | 0.01 | 47 | 1004.6 |
| 20260504183059 | 66 | 178 | 5.0 | 17.0 | 0.00 | 0.01 | 0.01 | 47 | 1004.6 |
| 20260504182556 | 67 | 213 | 11.0 | 17.0 | 0.00 | 0.01 | 0.01 | 46 | 1004.7 |
| 20260504182053 | 68 | 206 | 7.0 | 17.0 | 0.00 | 0.01 | 0.01 | 48 | 1004.9 |
| 20260504181550 | 66 | 185 | 5.0 | 16.0 | 0.00 | 0.01 | 0.01 | 50 | 1004.8 |
| 20260504181048 | 66 | 174 | 6.0 | 19.0 | 0.00 | 0.01 | 0.01 | 47 | 1004.9 |
| 20260504180547 | 67 | 212 | 6.0 | 13.0 | 0.00 | 0.01 | 0.01 | 47 | 1004.9 |
| 20260504180046 | 66 | 195 | 5.0 | 10.0 | 0.00 | 0.01 | 0.01 | 47 | 1005.0 |
| 20260504175542 | 69 | 196 | 12.0 | 17.0 | 0.00 | 0.01 | 0.01 | 45 | 1005.0 |
| 20260504175039 | 68 | 117 | 2.0 | 8.0 | 0.00 | 0.01 | 0.01 | 48 | 1005.1 |
| 20260504174537 | 67 | 198 | 11.0 | 19.0 | 0.00 | 0.01 | 0.01 | 46 | 1005.1 |
| 20260504174034 | 66 | 207 | 6.0 | 16.0 | 0.00 | 0.01 | 0.01 | 49 | 1005.0 |
| 20260504173531 | 65 | 174 | 8.0 | 15.0 | 0.00 | 0.01 | 0.01 | 48 | 1005.1 |
| 20260504173028 | 66 | 192 | 9.0 | 19.0 | 0.00 | 0.01 | 0.01 | 52 | 1005.1 |
| 20260504172524 | 66 | 241 | 4.0 | 14.0 | 0.00 | 0.01 | 0.01 | 48 | 1005.4 |
| 20260504172021 | 66 | 191 | 7.0 | 18.0 | 0.00 | 0.01 | 0.01 | 47 | 1005.3 |
| 20260504171518 | 66 | 190 | 4.0 | 11.0 | 0.00 | 0.01 | 0.01 | 47 | 1005.2 |
| 20260504171015 | 66 | 268 | 6.0 | 10.0 | 0.00 | 0.01 | 0.01 | 47 | 1005.4 |
| 20260504170510 | 65 | 208 | 6.0 | 17.0 | 0.00 | 0.01 | 0.01 | 48 | 1005.7 |